Location: Unspecified
(40.8819°N, 0.0000°E)
Time: 14:01:18
(UTC+00:00)

PCSat - Visible Passes

Search period start: 13 April 2024 00:00
Search period end: 23 April 2024 00:00
Orbit: 783 x 792 km, 67.0° (Epoch: 12 April)

Date Brightness Start Highest point End Pass type
(mag) Time Alt. Az. Time Alt. Az. Time Alt. Az.
13 Apr 9.8 20:27:59 33° SSE 20:29:49 45° ESE 20:34:57 10° NE visible
13 Apr 11.4 22:08:43 10° WSW 22:13:20 28° NW 22:17:59 10° N visible
14 Apr 10.2 19:53:38 10° S 19:58:21 32° ESE 20:03:05 10° NE visible
14 Apr 10.9 21:36:36 10° WSW 21:41:34 37° NW 21:46:36 10° NNE visible
15 Apr 11.9 04:41:01 10° N 04:45:36 27° NE 04:50:10 10° ESE visible
15 Apr 10.6 19:22:49 10° SSE 19:26:54 23° ESE 19:31:02 10° ENE visible
15 Apr 10.4 21:04:38 10° SW 21:09:53 50° NW 21:15:09 10° NNE visible
15 Apr 12.7 22:54:00 10° NW 22:54:33 10° NW 22:55:07 10° NNW visible
16 Apr 12.3 04:09:45 10° N 04:13:47 21° NE 04:17:49 10° E visible
16 Apr 9.8 20:32:51 10° SW 20:38:13 70° WNW 20:43:39 10° NNE visible
16 Apr 12.5 22:20:03 10° WNW 22:22:36 13° NW 22:25:08 10° N visible
17 Apr 12.5 03:38:37 10° N 03:41:55 16° NE 03:45:13 10° E visible
17 Apr 9.5 20:01:13 10° SSW 20:06:37 86° ESE 20:12:04 10° NNE visible
17 Apr 12.3 21:47:12 10° W 21:50:40 17° NW 21:54:11 10° N visible
18 Apr 12.7 03:07:45 10° NNE 03:10:00 12° NE 03:12:15 10° ENE visible
18 Apr 9.6 19:29:45 10° SSW 19:35:03 61° ESE 19:40:24 10° NE visible
18 Apr 12.0 21:14:40 10° W 21:18:49 22° NW 21:23:00 10° N visible
19 Apr 10.8 04:17:32 10° NNW 04:22:46 47° NE 04:27:57 10° SE visible
19 Apr 11.6 20:42:22 10° WSW 20:47:01 29° NW 20:51:42 10° N visible
20 Apr 11.4 03:46:07 10° NNW 03:51:04 35° NE 03:55:58 10° ESE visible
20 Apr 11.1 20:10:16 10° WSW 20:15:16 38° NW 20:20:19 10° NNE visible
21 Apr 11.8 03:14:45 10° N 03:19:18 26° NE 03:23:48 10° ESE visible
21 Apr 10.6 19:38:19 10° SW 19:43:34 52° WNW 19:48:52 10° NNE visible
21 Apr 13.0 21:27:18 10° NW 21:28:13 10° NW 21:29:09 10° NNW visible
22 Apr 12.2 02:43:29 10° N 02:47:28 20° NE 02:51:26 10° E visible
22 Apr 9.5 04:25:56 10° NW 04:31:20 69° WSW 04:36:41 10° SSE visible
22 Apr 12.7 20:53:37 10° WNW 20:56:16 14° NW 20:58:54 10° N visible
